Theta_e
289 288 287 286 286 285 285 284 284 283 283 283 283 282 282 282 282 282 282 282 282 281 281 281 281 280 280 280 279 279 279 279 278 278 278 278 278 278 278 278 278 278 278 278 278 277 277 277 277 277 277 277 277 277 277 278 279 279 279 279 279 279
288 287 286 286 285 285 284 284 284 283 282 282 282 282 282 281 281 281 281 281 281 281 280 280 280 280 280 279 279 279 279 278 278 278 278 278 278 277 277 277 277 277 277 277 277 277 277 277 277 277 277 276 277 277 277 278 278 279 279 278 279 279
288 287 286 285 285 284 284 284 283 283 282 282 282 282 281 281 281 281 281 281 281 280 280 280 279 279 279 279 279 279 279 278 278 278 277 277 277 277 277 277 277 277 277 277 277 277 277 277 276 276 276 276 277 277 277 278 278 278 278 278 278 278
288 286 286 285 284 284 284 283 283 282 282 282 281 281 281 281 281 281 281 280 280 280 279 279 279 279 279 279 279 278 278 278 278 277 277 277 277 277 277 277 277 277 277 277 277 276 276 276 276 276 276 276 277 277 277 277 278 278 278 278 278 277
287 286 285 285 284 284 283 283 283 282 282 281 281 281 281 281 281 280 280 280 280 279 279 279 279 279 279 278 278 278 278 278 277 277 277 277 277 277 277 277 277 277 276 276 276 276 276 276 275 275 275 276 276 277 277 277 277 277 277 277 277 276
286 285 285 284 284 283 283 283 282 282 282 281 281 281 281 281 280 280 280 280 279 279 279 279 279 279 279 278 278 278 278 277 277 277 277 277 277 277 277 276 276 276 276 276 276 276 276 275 275 275 275 276 276 276 276 277 276 276 276 276 276 276
286 285 285 284 284 283 283 283 282 282 282 282 281 281 281 281 280 280 280 279 279 279 279 279 279 278 278 278 278 278 277 277 277 277 277 277 277 277 276 276 276 276 276 276 276 275 275 275 274 275 275 276 276 275 275 276 276 276 276 275 275 275
286 285 285 284 284 283 283 282 282 282 282 282 281 281 281 280 280 280 279 279 279 279 279 279 278 278 278 278 278 278 277 277 277 277 277 277 277 277 276 276 276 276 276 276 275 275 275 274 274 275 276 276 275 274 274 275 275 275 275 275 275 275
287 286 285 284 284 283 283 282 282 282 282 282 281 281 281 280 280 280 279 279 279 279 279 278 278 278 278 278 278 277 277 277 277 277 277 277 277 276 276 276 276 276 276 275 275 274 274 274 274 275 275 274 274 274 274 274 275 275 275 275 275 275
287 286 285 285 284 283 282 282 282 282 282 282 281 281 281 280 280 280 280 280 279 279 279 278 278 278 278 278 278 277 277 277 277 277 277 276 276 276 276 276 276 275 275 275 274 274 273 274 274 274 274 273 273 274 274 274 274 274 274 274 274 275
287 286 286 285 284 283 283 282 282 282 282 282 281 281 281 280 280 280 280 279 279 279 279 279 279 279 278 278 277 277 277 277 277 277 277 276 276 276 276 276 275 275 275 274 274 273 273 273 274 274 273 273 273 273 274 274 274 274 274 274 274 275
288 287 286 285 284 283 283 283 282 282 282 282 281 281 281 280 280 280 280 280 279 279 279 279 279 278 278 278 277 277 277 277 277 276 276 276 276 276 276 275 275 275 274 274 274 273 273 273 273 273 272 273 273 273 273 273 274 274 274 274 274 274
289 288 287 286 285 284 283 283 282 282 282 282 282 281 281 281 280 280 280 280 279 279 279 279 279 278 278 277 277 277 277 276 276 276 276 276 276 276 276 275 275 275 275 274 274 273 273 273 273 272 272 273 273 273 272 272 273 274 274 274 274 274
291 288 287 286 285 284 284 283 283 283 283 282 282 282 281 281 280 280 280 280 279 279 279 279 278 278 278 278 277 277 277 276 276 276 276 276 276 276 275 275 275 275 275 274 273 273 272 272 272 272 272 272 273 273 273 272 272 273 274 274 274 273
292 289 288 287 286 285 284 284 283 283 283 283 282 282 281 281 280 280 280 280 280 279 279 279 278 278 278 278 277 277 277 276 276 276 276 276 276 276 275 275 275 275 274 274 273 273 272 272 272 272 272 272 272 273 273 272 272 273 273 273 273 273
293 291 290 289 287 286 285 284 284 284 283 283 283 282 282 281 281 280 280 280 280 280 279 279 278 278 278 277 277 277 277 277 276 276 276 276 276 276 276 276 275 275 274 273 273 272 272 272 272 272 271 271 272 272 272 272 271 272 272 272 273 273
293 291 290 290 288 287 286 285 285 284 283 283 283 282 282 281 281 281 280 280 280 280 279 279 278 278 278 277 277 277 277 276 276 276 276 276 276 276 276 276 275 274 273 273 273 272 272 272 272 272 271 271 271 272 272 272 271 272 272 272 273 273
293 292 291 290 289 288 286 286 285 284 284 283 283 282 282 282 281 281 281 280 280 280 280 279 278 278 278 277 277 277 276 276 276 276 276 276 276 276 276 275 275 274 274 273 273 272 272 272 272 271 271 271 271 271 271 271 271 272 272 272 272 272
294 293 292 291 290 289 288 287 286 285 284 283 283 282 282 282 281 281 281 280 280 280 280 279 279 278 278 277 277 277 276 276 276 276 276 276 276 276 276 275 275 274 274 273 273 272 272 271 271 271 271 271 271 271 271 271 271 272 272 272 272 272
295 293 293 292 291 290 289 288 287 285 284 283 283 282 282 282 281 281 281 281 280 280 280 279 279 278 278 277 277 277 276 276 276 276 276 277 277 276 276 275 275 274 274 274 273 272 272 271 271 271 271 270 270 270 271 271 271 271 271 271 271 271
295 294 293 292 291 290 290 288 287 286 284 284 283 282 282 282 281 281 281 281 281 280 280 280 279 279 278 278 277 277 277 276 276 276 277 277 277 276 276 275 275 274 274 274 273 272 271 271 271 271 271 270 270 270 270 270 270 270 271 271 271 271
295 294 293 292 291 291 290 289 288 286 285 284 283 283 282 282 282 281 281 281 281 281 280 280 279 279 278 278 277 277 277 277 276 277 277 276 276 276 275 275 275 275 274 274 273 272 271 271 271 270 270 270 270 270 270 270 269 270 270 270 270 270
295 294 293 292 292 291 290 289 288 287 286 285 284 283 283 282 282 282 281 281 281 281 281 280 280 279 279 278 278 277 277 277 277 277 276 276 275 275 275 275 275 274 274 273 273 272 272 271 271 270 270 270 269 270 270 269 269 269 270 270 270 270
294 294 293 293 292 291 290 289 288 287 287 286 285 284 284 283 282 282 281 281 281 281 281 280 280 279 279 278 278 278 277 277 277 277 276 276 275 275 275 274 274 274 273 273 272 272 272 271 270 270 270 270 269 270 270 269 269 269 270 270 270 270
294 293 293 293 292 292 290 289 288 287 287 287 286 286 285 284 283 282 282 281 281 281 281 280 280 280 279 279 278 278 277 277 277 276 276 276 275 274 274 274 274 273 273 272 272 272 272 271 270 270 270 269 269 269 270 270 269 270 270 270 270 270
293 293 293 293 292 291 290 289 289 288 287 287 287 286 286 285 284 283 282 282 281 281 281 280 280 280 279 279 278 278 277 277 276 276 276 275 275 274 274 274 273 273 273 272 271 271 271 271 270 270 270 269 269 269 269 270 270 271 271 270 270 270
294 293 293 292 292 291 291 290 289 288 288 288 288 287 286 285 284 283 282 282 281 281 281 280 280 280 279 279 279 278 277 277 276 276 275 275 275 274 274 273 273 273 273 272 271 271 271 271 271 270 270 269 269 269 269 270 270 270 271 270 270 269
294 293 292 292 292 291 291 290 289 289 289 289 288 288 287 286 285 283 283 282 282 281 281 280 280 280 279 279 279 278 277 277 276 276 275 275 274 274 274 273 272 272 272 272 271 271 271 270 270 270 269 269 269 269 269 270 270 270 270 270 269 269
293 292 291 292 292 291 291 290 290 290 290 289 289 288 287 286 285 284 283 282 282 281 281 280 280 280 279 279 278 278 277 277 276 276 275 274 274 273 273 273 272 272 272 271 271 271 270 270 269 269 269 269 268 268 268 269 269 269 269 269 268 268
292 292 291 291 292 291 291 290 290 290 290 289 289 289 288 287 285 284 284 283 282 282 281 281 280 280 279 279 278 278 277 276 276 276 275 275 275 274 273 273 273 273 273 272 271 271 269 269 269 269 269 269 269 268 268 268 268 268 268 268 268 267
291 291 291 291 292 291 291 291 291 290 289 289 289 289 288 287 286 285 284 283 283 282 281 281 280 280 279 279 278 278 277 277 276 276 276 276 277 277 277 276 275 274 275 274 273 272 270 269 270 270 270 269 269 268 268 268 268 268 268 268 267 267
291 291 291 291 291 291 291 290 290 290 289 289 289 288 288 287 286 285 284 284 283 282 282 281 280 280 279 279 278 277 277 276 276 276 276 276 277 277 278 278 278 277 277 276 275 275 274 273 272 271 269 269 269 269 269 269 268 268 268 268 267 267
291 291 291 291 291 291 291 290 290 290 289 289 288 288 288 287 286 285 284 284 284 283 282 281 280 280 279 279 278 277 277 276 275 275 275 276 276 276 276 276 277 277 277 276 276 275 273 272 272 270 269 269 270 270 270 269 269 269 269 268 267 266
290 290 291 291 291 291 290 290 290 290 289 288 288 288 288 287 286 285 285 284 284 283 283 282 281 280 279 278 278 277 276 275 275 274 274 274 275 275 275 274 275 276 276 276 275 274 272 271 270 270 270 270 270 270 269 269 269 269 268 267 267 266
290 290 290 290 290 290 290 290 290 290 289 288 288 288 287 287 286 286 285 285 284 284 283 282 281 280 279 278 278 277 276 275 274 274 273 273 273 274 273 273 274 274 274 274 274 273 272 271 270 270 270 270 270 269 269 268 268 268 267 266 266 265
290 290 290 289 289 289 289 290 290 290 289 288 288 287 287 287 286 286 285 285 284 284 283 282 281 280 279 278 277 277 276 275 274 274 273 272 272 272 273 273 273 273 273 273 273 272 271 270 270 270 270 269 269 268 268 267 267 266 265 265 264 264
289 289 289 289 289 289 289 289 290 290 289 288 288 287 287 286 286 285 285 285 284 284 283 282 281 280 279 278 277 277 276 275 274 274 273 272 271 272 272 272 272 272 272 272 272 271 270 270 270 270 270 269 268 268 267 267 266 265 264 264 264 263
289 289 289 288 288 288 288 288 289 289 288 288 287 287 286 286 285 285 285 284 284 283 283 282 281 280 280 279 278 277 276 275 274 274 273 272 272 272 271 271 271 271 271 271 271 271 271 270 270 270 269 268 268 267 267 266 265 264 264 263 263 262
Wind_Speed
19 21 21 21 22 21 20 20 20 20 20 22 24 22 20 20 21 23 22 22 23 22 22 22 21 21 21 20 20 19 18 17 16 16 15 14 14 13 13 13 13 12 12 11 11 11 11 11 11 11 11 10 9 9 9 10 10 9 7 7 8 7
21 22 23 24 25 24 22 22 22 22 21 22 23 22 21 21 21 23 23 23 23 23 22 22 22 22 21 20 19 19 18 17 16 15 15 14 14 14 13 13 13 12 12 11 11 11 11 11 10 10 10 9 10 10 10 9 8 7 6 5 5 5
22 23 24 24 24 24 24 23 23 23 23 23 24 24 24 23 22 23 24 24 23 23 23 23 22 21 20 19 19 18 18 17 16 16 15 15 14 14 13 13 13 12 12 11 11 11 11 10 10 9 9 9 10 9 8 7 6 5 4 3 4 4
22 23 24 24 24 24 24 24 24 24 25 25 26 26 26 26 25 25 25 25 24 24 24 23 22 20 20 19 19 19 18 17 17 16 15 15 15 14 13 13 12 12 11 11 11 10 10 9 9 8 8 9 9 7 5 4 4 3 3 3 3 4
23 24 24 24 24 24 25 25 25 25 27 27 27 27 27 27 26 26 26 25 25 24 24 23 22 21 20 20 19 19 19 18 17 16 15 15 14 13 13 12 12 12 11 11 10 9 9 9 8 7 8 8 6 5 4 3 3 2 2 2 3 4
22 23 23 24 24 25 26 27 27 27 28 28 28 28 28 27 26 26 27 26 25 24 24 23 23 22 21 21 20 20 19 19 18 17 16 15 14 13 13 12 11 11 10 10 9 9 8 8 7 6 7 5 4 4 4 3 2 2 2 2 3 3
20 22 23 24 25 27 29 29 29 30 30 30 30 29 28 28 28 28 28 27 26 25 25 24 23 23 22 21 21 20 20 19 18 17 16 15 14 13 12 12 11 10 10 9 9 8 7 6 6 6 6 3 2 3 3 3 2 2 1 1 2 2
19 22 24 26 27 29 30 30 30 31 30 30 30 30 29 29 29 29 29 28 27 26 25 25 25 24 22 22 21 21 20 19 18 17 16 15 14 13 12 12 11 10 10 9 8 7 7 7 6 6 5 3 2 2 3 3 2 0 1 1 1 1
18 23 25 27 28 30 31 31 31 31 31 30 30 30 30 30 30 30 30 29 28 28 27 27 26 25 23 22 22 21 20 19 18 17 16 14 14 13 12 12 11 11 10 9 8 8 8 7 7 6 4 3 2 2 2 1 1 2 2 1 1 2
16 21 26 28 29 30 31 32 32 32 32 33 32 32 32 32 31 31 31 30 29 29 28 28 27 25 24 23 23 22 20 19 18 17 16 14 13 13 12 12 12 11 10 9 9 8 8 7 6 5 4 3 2 2 1 1 2 2 1 0 2 3
16 22 28 30 31 32 32 32 33 32 32 33 34 33 33 33 33 33 32 31 31 30 29 28 27 26 25 23 23 22 21 20 19 17 16 15 14 13 12 12 12 12 11 10 9 8 7 7 6 4 4 3 2 2 2 3 3 2 1 1 2 3
19 23 28 29 31 33 34 33 34 34 33 33 34 34 34 34 35 34 33 32 32 31 30 29 28 27 26 25 24 23 22 21 20 18 17 15 14 13 12 12 13 13 12 10 9 7 7 7 6 5 5 3 2 2 3 3 3 2 1 2 3 4
18 22 26 29 33 35 35 34 34 33 33 33 34 35 35 36 35 35 34 33 32 31 31 30 29 28 27 26 26 24 23 22 21 19 17 15 14 14 13 14 14 13 12 10 8 7 7 8 7 6 5 4 3 3 3 3 4 3 2 3 4 5
17 21 26 29 32 34 34 34 33 33 34 34 36 36 36 36 36 35 34 33 32 32 32 31 30 30 29 28 27 26 24 23 21 19 18 17 16 16 15 14 14 13 12 11 10 10 10 10 8 6 6 5 4 4 5 5 4 4 4 4 5 6
17 23 27 28 31 34 35 35 34 35 36 36 36 36 36 37 36 35 34 33 33 33 33 33 32 31 30 29 28 27 25 24 22 21 20 20 18 18 16 15 14 14 13 12 12 11 11 11 9 7 7 7 6 6 6 6 5 5 5 5 5 5
18 24 27 29 31 33 34 34 34 34 35 35 36 37 38 38 37 36 35 35 35 34 34 33 33 32 31 30 29 28 27 26 25 23 22 21 20 19 18 16 15 14 14 13 12 12 11 11 10 8 8 8 8 7 7 7 5 5 4 4 4 5
21 24 28 30 32 32 33 35 35 34 34 36 37 38 38 38 37 36 36 36 35 35 35 34 34 33 32 31 31 30 29 28 27 26 25 23 22 20 18 17 16 15 14 14 13 12 12 12 12 10 9 9 9 9 8 7 5 4 4 3 4 6
27 28 30 31 33 34 36 37 36 35 35 37 37 37 37 37 37 36 36 36 36 37 37 37 36 35 34 34 33 32 31 30 29 28 27 24 22 20 18 17 17 16 15 15 14 13 13 14 14 12 11 10 9 9 9 7 5 4 4 5 6 6
30 30 31 32 35 38 39 39 38 37 36 36 37 38 38 38 38 38 38 38 39 40 40 39 37 36 36 36 36 35 34 33 31 30 28 26 24 22 20 19 18 16 16 15 15 15 14 15 15 14 11 10 10 9 9 7 6 6 6 7 6 6
30 31 33 34 37 40 41 41 40 39 37 37 39 39 39 40 40 41 41 41 41 41 41 40 39 39 39 38 38 37 35 34 33 32 30 28 26 24 23 22 19 17 16 16 16 16 15 15 16 15 12 10 10 10 9 7 7 7 7 7 6 5
31 32 34 36 38 41 41 41 42 40 38 39 41 40 41 43 44 44 43 42 42 41 41 41 41 40 40 39 38 38 37 36 35 33 31 28 27 26 25 23 21 19 17 17 17 16 16 16 17 16 13 11 10 10 9 8 8 7 6 6 5 5
28 30 33 36 38 40 41 41 41 40 40 40 40 41 43 45 45 44 43 42 41 41 41 41 41 41 41 40 39 38 38 37 35 33 32 30 28 27 26 24 22 20 18 18 18 18 18 17 17 16 15 12 10 10 9 8 8 7 6 6 6 5
28 30 32 35 35 36 39 40 38 38 38 36 37 42 44 43 42 41 41 41 40 41 41 41 42 42 41 40 39 38 38 37 36 35 34 32 30 28 26 25 23 21 20 19 19 19 18 17 17 16 15 12 11 10 10 9 8 7 6 6 5 4
27 29 30 32 33 36 39 39 37 37 35 35 40 44 41 38 38 40 40 40 41 42 42 42 42 42 40 39 39 39 38 37 37 36 35 34 32 30 28 26 25 23 21 20 19 19 18 17 17 16 15 13 12 11 11 10 9 7 7 7 6 5
25 29 30 31 33 36 38 39 38 36 35 39 44 42 36 36 39 39 39 41 42 42 43 43 43 42 41 41 42 41 40 38 37 37 36 36 34 32 30 28 26 25 24 22 22 21 19 18 18 16 15 14 13 12 12 11 9 8 8 7 6 5
24 27 29 31 34 36 39 40 39 36 38 43 42 36 34 37 38 38 39 41 42 43 43 43 43 43 43 44 43 42 41 40 39 38 38 37 36 34 32 30 28 27 26 25 24 23 21 20 19 17 15 14 13 12 12 11 10 9 9 7 6 5
24 24 26 29 33 36 39 42 40 38 41 43 38 35 37 38 37 39 41 42 42 43 43 42 43 44 45 45 45 44 43 42 41 40 39 38 37 36 34 31 30 29 28 27 26 24 22 20 18 17 15 13 13 13 12 11 10 10 8 8 8 6
22 22 24 27 32 35 38 40 41 41 43 40 36 36 39 39 39 41 42 42 43 42 42 42 42 43 44 44 45 45 45 45 44 42 40 39 38 37 35 34 32 31 29 28 26 24 22 20 19 17 15 13 13 13 13 11 10 9 7 7 7 6
20 21 23 26 30 34 36 38 41 43 42 37 35 37 39 39 41 42 41 42 42 41 42 43 43 43 43 44 44 44 43 44 45 43 42 41 39 37 35 34 33 32 31 28 26 24 23 21 20 18 16 14 14 13 13 12 11 9 8 8 8 8
22 23 24 26 30 34 36 38 41 43 40 37 36 37 37 39 42 42 41 42 41 41 42 44 44 43 43 43 44 44 43 44 45 44 45 45 44 42 39 37 36 36 34 31 28 25 24 23 23 21 19 17 16 14 13 12 10 9 8 9 10 10
24 24 26 28 30 32 35 38 40 41 40 38 37 37 38 40 41 41 40 41 40 41 42 42 43 43 42 42 43 44 44 46 48 48 47 47 47 46 43 41 40 39 37 34 31 28 27 26 26 23 19 17 16 15 13 11 10 9 7 8 11 11
25 25 26 28 28 30 33 37 38 39 39 38 37 38 40 40 38 37 38 39 39 40 40 40 40 41 42 41 42 41 39 40 44 46 45 45 46 45 43 41 38 37 35 34 31 28 26 23 21 20 18 17 17 16 14 11 10 9 7 8 11 11
25 25 26 28 28 29 32 35 36 37 38 38 38 39 40 39 36 35 36 38 39 39 39 38 39 41 41 41 41 39 36 34 36 38 39 40 42 42 40 38 35 32 31 30 28 26 23 19 17 16 18 19 18 17 14 12 11 10 10 11 13 12
24 26 28 29 29 29 31 32 35 36 37 37 38 39 40 39 38 36 36 37 37 38 38 39 39 40 40 39 37 37 36 34 32 30 30 33 36 37 36 35 33 31 28 27 26 25 23 20 18 18 20 20 19 16 15 13 12 12 13 15 16 14
26 28 29 28 27 28 29 31 34 36 36 35 37 39 40 41 41 39 37 36 36 36 38 39 39 39 39 39 37 37 37 36 35 31 27 26 28 29 29 30 31 31 29 27 26 25 23 22 20 20 21 20 19 17 15 13 13 13 15 17 17 15
25 25 26 27 27 27 28 31 34 35 34 34 35 38 40 41 42 40 38 37 37 37 38 39 39 39 39 38 39 38 38 38 38 35 32 30 28 26 25 25 27 28 28 27 26 25 24 22 21 22 22 21 19 17 15 15 15 14 14 16 17 15
23 24 26 27 26 26 27 31 34 34 32 31 33 36 38 39 39 38 37 37 37 38 38 39 40 39 37 37 38 39 39 38 37 36 35 36 35 34 31 29 28 27 27 27 26 24 24 23 23 23 23 21 19 18 16 17 19 18 16 16 16 14
22 25 26 25 24 24 27 30 32 31 29 28 31 34 37 38 38 38 37 37 38 39 39 39 39 38 38 39 40 40 39 38 37 36 35 36 35 35 34 32 31 29 27 27 26 25 24 24 23 23 23 21 20 19 20 22 23 22 20 20 18 15
Wind_Direction
168 164 163 164 165 167 167 167 168 168 169 167 163 162 163 162 158 155 156 158 157 156 156 157 156 154 152 149 148 147 146 145 144 143 141 136 131 127 124 122 121 121 120 118 114 112 108 105 104 101 95 93 92 88 82 77 73 70 51 31 38 33
166 164 162 163 165 167 168 168 170 170 170 169 166 164 164 165 163 161 160 160 160 158 157 157 156 154 152 151 150 149 149 149 149 147 143 139 135 133 131 131 130 129 127 124 120 116 111 108 104 100 97 95 92 87 80 71 68 68 53 36 37 22
162 161 162 164 165 167 170 172 173 172 171 172 171 169 169 169 168 166 165 165 164 162 159 158 156 154 154 153 153 153 153 154 154 151 147 143 141 140 139 139 137 135 132 128 124 119 113 109 104 100 99 97 90 81 73 69 71 69 52 39 33 13
158 158 161 164 165 167 171 174 174 175 175 175 175 175 174 174 173 172 169 166 165 163 161 159 157 156 157 157 158 159 159 159 156 153 151 148 145 145 145 143 141 139 136 131 126 121 114 109 105 101 98 97 92 85 78 73 74 68 48 38 17 1
157 157 161 164 166 170 173 174 176 179 179 178 178 178 177 176 175 173 170 167 165 165 163 162 161 161 161 163 165 166 165 162 158 156 155 152 149 149 148 146 144 142 139 134 128 121 116 110 105 103 100 98 99 106 112 100 82 59 31 28 4 356
157 159 164 167 169 172 175 178 181 182 182 181 181 181 179 178 175 174 170 168 168 167 166 166 166 165 166 169 171 170 168 165 162 159 158 155 152 151 150 148 147 145 141 137 132 126 119 114 113 113 109 108 120 135 134 119 92 55 23 18 5 357
162 165 170 172 174 176 179 182 184 184 184 184 183 182 181 180 177 174 172 170 170 171 170 170 170 170 171 174 175 174 171 168 165 163 160 157 153 152 152 151 151 150 148 144 140 133 127 127 128 126 125 135 158 149 132 113 92 57 25 359 337 336
166 170 175 178 180 182 182 183 185 186 186 186 185 183 182 181 178 175 174 173 174 174 174 174 173 174 176 179 179 176 173 171 168 165 162 159 156 155 156 156 156 157 156 153 148 144 143 145 144 141 147 170 169 134 114 97 88 109 249 260 280 331
171 175 179 183 185 185 184 185 187 186 186 187 186 184 183 182 179 177 176 177 177 177 177 178 177 177 180 184 182 178 175 173 171 167 164 161 161 160 160 162 163 164 164 161 158 159 158 154 153 158 174 189 166 124 105 103 182 236 233 235 329 15
175 177 181 185 187 187 187 188 190 189 189 188 186 185 185 182 180 179 179 180 180 180 180 181 180 180 184 186 183 180 178 175 172 170 167 164 166 167 167 169 170 170 171 170 168 167 162 158 163 180 202 203 167 133 158 220 230 239 243 340 11 10
180 181 185 187 186 186 188 190 192 192 191 190 187 186 186 184 181 182 182 182 183 183 183 182 181 183 186 187 184 182 180 178 176 174 170 170 172 172 172 175 177 178 175 172 173 170 165 170 182 202 217 211 184 179 209 234 243 251 280 332 356 349
185 184 185 187 187 187 189 190 191 192 191 189 188 187 186 185 184 184 184 185 186 185 184 183 182 184 186 186 186 185 182 180 180 177 174 174 175 176 178 181 182 183 180 176 177 174 171 186 201 214 222 213 201 214 222 237 246 243 267 308 322 315
184 186 187 190 190 190 190 191 190 190 191 189 187 187 187 187 186 186 186 188 188 186 184 183 183 184 186 187 187 185 184 183 182 179 178 179 180 181 184 185 185 186 185 183 185 185 186 200 212 222 224 212 208 234 242 242 238 229 239 274 286 290
186 189 192 193 193 192 191 190 188 189 190 189 188 188 187 188 188 188 189 189 188 187 186 185 184 184 186 187 187 187 186 185 183 182 182 185 187 187 188 188 189 190 189 190 193 192 196 208 220 227 226 218 213 228 246 246 231 218 228 251 265 275
190 189 192 193 195 196 194 191 189 190 191 189 188 187 188 189 190 190 189 189 188 188 187 186 185 185 187 188 188 188 187 186 186 186 188 190 191 191 190 190 192 192 194 198 198 195 199 213 225 229 227 227 221 223 242 248 230 217 226 237 255 276
191 188 191 195 199 199 196 194 193 192 191 189 188 189 189 190 191 191 190 190 190 189 188 187 187 188 188 188 188 189 189 189 189 190 192 193 192 193 192 192 194 196 198 201 201 198 202 217 229 230 228 229 228 228 240 244 225 215 225 236 262 285
189 188 192 196 198 197 196 196 195 192 191 190 190 190 191 191 192 192 192 191 191 190 188 189 190 189 188 188 189 190 190 190 191 192 194 195 195 195 194 194 195 197 200 204 204 201 204 216 228 233 231 230 229 230 238 240 223 210 223 240 257 269
192 192 193 194 195 195 195 196 194 191 190 191 191 191 192 192 193 194 194 192 191 191 191 191 191 189 189 189 189 190 190 190 191 193 194 196 196 197 197 198 199 199 201 205 208 208 207 213 224 232 232 229 228 232 237 232 213 209 223 235 246 259
196 195 194 194 194 195 195 194 193 191 190 190 191 192 193 194 195 195 195 194 193 193 193 192 191 190 190 190 190 190 191 191 192 193 194 195 196 197 199 200 200 201 203 206 210 213 210 210 220 230 233 230 230 234 234 223 209 211 222 231 243 259
197 196 194 194 196 197 195 192 191 190 190 191 192 193 194 196 198 198 196 196 196 194 194 193 192 192 191 191 192 191 191 192 193 194 196 197 197 199 201 200 199 201 206 210 214 217 213 211 219 228 234 233 233 236 234 221 211 213 221 231 241 251
195 195 193 194 196 197 195 192 191 190 192 194 194 195 197 199 200 199 198 197 197 195 195 195 194 194 193 193 192 192 193 193 193 195 197 199 199 200 201 200 200 201 207 213 215 217 214 211 216 227 235 233 231 236 236 223 215 215 217 227 243 256
191 191 193 196 198 196 194 193 192 193 196 197 196 198 202 203 201 200 199 198 197 197 197 196 196 196 195 194 194 194 194 194 194 195 197 198 200 201 201 201 202 203 207 213 216 217 217 216 218 226 233 231 227 232 233 224 217 213 211 222 244 263
192 194 197 200 199 196 195 194 194 199 201 199 201 206 207 205 202 201 199 198 197 198 198 198 198 197 197 196 195 194 195 195 195 195 196 196 197 199 200 201 202 203 207 213 218 220 220 220 222 224 229 231 226 221 224 224 216 206 208 225 239 254
194 197 201 202 198 196 195 194 197 202 202 204 210 212 209 205 203 201 199 198 198 199 199 199 199 198 197 197 196 194 195 196 196 196 196 195 195 196 198 199 200 200 203 211 219 223 221 220 221 223 227 232 226 215 215 222 219 205 208 225 236 248
194 198 201 200 198 198 195 195 200 203 204 210 215 213 208 206 205 202 200 199 200 200 200 200 199 198 197 196 197 196 195 194 194 195 195 193 193 194 196 198 199 199 201 207 216 222 223 222 224 227 227 227 224 215 211 214 215 211 214 226 238 243
196 200 201 199 198 198 197 198 202 204 208 215 216 210 207 207 204 201 201 201 201 201 201 200 199 198 198 197 197 196 194 193 193 193 194 194 193 193 194 196 197 198 200 205 212 219 222 222 224 227 225 221 218 213 208 208 211 212 217 226 233 236
200 199 201 201 200 200 200 202 203 206 213 217 213 207 207 206 202 201 202 202 203 202 201 201 200 199 199 197 196 195 193 192 191 191 192 193 193 193 194 195 197 199 201 204 209 214 220 222 224 224 221 219 214 207 205 209 211 213 220 228 236 244
203 199 201 203 203 203 204 205 206 211 216 216 211 208 208 203 200 202 202 202 203 202 201 200 199 199 199 198 198 197 195 193 192 191 191 192 193 195 195 195 196 199 201 205 208 210 214 219 223 223 222 219 212 205 202 205 208 212 219 228 236 237
203 202 203 205 206 206 207 208 211 215 218 215 211 209 206 202 201 202 202 202 202 201 200 200 199 198 199 198 198 198 196 195 194 192 190 191 192 193 194 195 197 199 201 204 205 206 209 212 217 221 220 218 216 208 201 202 207 208 210 222 238 242
206 207 207 208 208 207 208 211 214 217 218 215 212 208 204 203 203 202 202 202 202 200 201 201 200 199 198 198 198 197 197 196 195 194 195 196 196 195 194 195 198 201 203 203 201 199 200 204 213 219 218 216 216 210 203 203 208 209 214 232 246 250
211 210 212 214 212 209 210 213 217 218 218 216 213 208 204 204 204 203 203 203 202 202 202 202 201 200 199 199 200 200 201 200 199 199 201 203 204 205 204 202 203 205 207 206 204 201 198 203 214 220 220 218 214 208 205 207 210 217 228 238 241 241
216 216 217 219 216 212 213 216 218 220 219 216 212 208 206 205 203 203 204 204 203 204 203 201 201 201 200 200 200 201 203 204 205 204 204 205 207 209 211 212 212 213 212 210 210 211 212 217 222 220 213 207 201 200 203 205 209 215 212 207 218 230
219 219 222 223 220 216 217 219 220 221 220 217 213 210 208 205 202 203 205 205 205 205 203 201 201 201 201 202 201 199 199 200 204 208 209 209 208 208 210 212 214 216 216 214 213 213 215 220 221 210 199 194 192 195 200 200 204 208 202 204 220 235
219 221 225 226 223 220 220 222 224 225 223 218 213 210 208 206 204 205 207 207 207 206 204 202 202 202 202 202 200 198 196 194 194 200 207 212 212 209 207 207 209 211 213 214 213 212 208 207 204 195 189 188 190 195 198 198 201 203 202 212 228 240
226 228 230 230 226 223 222 224 228 229 225 220 215 210 208 208 207 208 209 207 206 205 204 204 203 203 202 201 198 197 195 193 191 189 189 196 204 205 202 204 208 209 208 207 210 211 209 206 199 190 185 188 191 192 193 195 197 198 205 218 232 243
234 234 236 234 231 227 225 227 232 232 227 222 217 212 209 210 210 211 211 209 206 205 204 205 205 204 202 201 199 197 196 196 195 191 182 177 179 184 189 196 203 205 204 204 205 208 208 204 197 190 188 189 190 190 190 192 194 198 212 229 239 246
238 239 240 239 234 230 227 231 237 237 230 223 218 214 212 212 212 212 213 212 209 207 206 207 207 205 202 200 199 199 199 197 196 194 188 182 179 180 183 187 191 194 198 199 198 199 201 197 191 189 190 190 190 188 187 193 200 206 217 230 238 241
240 242 244 241 237 232 230 235 241 239 230 223 219 215 213 213 212 212 213 213 211 210 209 209 207 205 203 202 200 200 200 198 196 194 191 189 188 187 184 184 184 186 190 194 194 193 192 189 187 187 189 191 190 188 191 202 210 214 220 229 236 239